Back to catalog

STARLINK-36442

AliveCommunicationsVLEO
NORAD 67413·PAYLOAD·🇺🇸 United States

Launched Jan 12, 2026 from Cape Canaveral Space Force Station

Loading…

Next Passes (next 24 hours)

TLE

FreshSource: CelesTrak SupGP

Epoch: Sep 14, 2026, 14:20 UTC

1 67413C 26005K   26257.59770833 -.00018012  00000+0 -65264-3 0  2574
2 67413  42.9994 250.8745 0001400 271.8543 333.7778 15.27575752    11

Track STARLINK-36442 in real time with AllMySat

Download on the App Store